Погода Пушкинские Горы

Хотите узнать прогноз погоды Пушкинские Горы? Тогда Вам сюда: Погода Пушкинские Горы

Поиск расширенной информации на нашем сайте:

Полезная информация:

Новости сайта



02.01.2020
Опубликован Долгосрочный прогноз погоды по городам России и ближнего зарубежья на январь 2020 года.
Карты: Прогноз на январь и февраль 2020 года, Сравнение прогнозируемой аномалии приземной температуры воздуха на январь 2020 года по разным моделям.




Погода Пушкинские Горы - сегодня

Время (UTC), дата Ветер
(°,м/с) 
Видим.   Явления Облачность Т
(°С)
Тd
(°С)
f(%) Тe
(°С)
Pmin
(гПа)
dP
(гПа)
Po
(мм)
O2
(г/м3)
Тmin Tmax R s Состояние
почвы
06 05.04.20 290 (З) 20000 м    ясно 
+1.2 -2.3 77 1028.4  2.3  762  306  -2         
09 05.04.20 300 (СЗ) 20000 м    4/4 1000 м кучево-дожд. 
[Cb cap]
+6.1 -8.3 35 +4  1029.6  1.4  763  301           
12 05.04.20 320 (СЗ) 4{11}  20000 м    8/8 1000 м кучево-дожд. 
[Cb cap]
+6.9 -10.9 27 +6  1029.5  763  301           
15 05.04.20 320 (СЗ) 4{12}  20000 м    3/1 1000 м верхняя 
[Cu med, cong|Ci fib]
+8.3 -10.7 25 +7  1029.8  0.3  763  299           
18 05.04.20 030 (СВ) 1{12}  20000 м    1/0 верхняя 
[Ci fib]
+2.8 -8.4 43 +4  1031.2  1.1  764  306    +8.8       
21 05.04.20 тихо ()   20000 м    ясно 
-1.4 -7.7 62 -1  1032.7  1.2  765  311           
00 06.04.20 110 (В) 20000 м    3/0 верхняя 
[Ci fib]
-3 -7.4 72 -3  1033.5  0.8  765  313           
03 06.04.20 170 (Ю) 20000 м    9/9 600 м кучево-дожд. 
[Cb cap]
-0.8 -7.4 61 1033.3  -0.1  765  310  -3.4         
06 06.04.20 210 (ЮЗ) 20000 м    10/10 600 м 
[Sc]
+1.3 -5.1 62 +2  1033.6  0.4  766  308  -3.4         
09 06.04.20 230 (ЮЗ) 20000 м    9/0 верхняя 
[Ci]
+6.9 -0.3 60 +6  1033.2  -0.1  765  301           
12 06.04.20 290 (З) 20000 м    9/8 600 м кучево-дожд., верхняя 
[Cb cap|Ci]
+11.8 +1.8 50 +11  1032.7  -0.3  765  295           
15 06.04.20 290 (З) 20000 м    9/1 600 м средняя 
[Cu hum|Ac und]
+11.5 +1.3 49 +11  1032.5  -0.2  765  296           
18 06.04.20 130 (ЮВ) 20000 м    3/0 средняя, верхняя 
[Ac cuf|Ci fib]
+4.7 +0.4 74 +6  1032.9  0.1  765  303    +12       
21 06.04.20 150 (ЮВ) 20000 м    1/0 верхняя 
[Ci fib]
+4.9 +0.1 71 +5  1033  0.1  765  303           
00 07.04.20 140 (ЮВ) 20000 м    ясно 
+3.6 +0.1 78 +2  1033.2  0.1  765  304           
03 07.04.20 150 (ЮВ) 20000 м    1/0 верхняя 
[Ci fib]
+2.5 -0.9 78 +2  1032.5  -0.7  765  305  +2.3         
06 07.04.20 190 (Ю) 20000 м    3/0 верхняя 
[Ci fib]
+7.8 -0.9 54 +7  1030.9  -1.4  764  299  +2.2         
09 07.04.20 220 (ЮЗ) 6-11{11}  20000 м    ясно 
+15.5 -6.7 21 +15  1028.2  -2.3  762  291           
12 07.04.20 220 (ЮЗ) 5-10{12}  20000 м    ясно 
+18.1 -5 20 +18  1025.4  -2.7  760  288           
15 07.04.20 230 (ЮЗ) 5-10{11}  20000 м    ясно 
+18.3 -2.9 23 +18  1022.3  -3  758  286           
18 07.04.20 190 (Ю) 2{11}  20000 м    4/4 600 м кучево-дожд. 
[Cb cap]
+13.9 -2.6 32 +14  1020  -2.5  756  290    +18.9       
21 07.04.20 280 (З) 5{10}  20000 м    6/0 средняя 
[Ac trans]
+12.9 +1.2 45 +12  1017.9  -2.1  754  290           
00 08.04.20 300 (СЗ) 4-11{13}  20000 м    10/10 600 м кучево-дожд. 
[Cb cap]
+8.4 +2.7 67 +7  1019.4  1.4  755  295           
03 08.04.20 300 (СЗ) 3{14}  20000 м    10/10 600 м кучево-дожд. 
[Cb cap]
+6 +3.8 86 +5  1022  2.3  757  298  +5.9         
06 08.04.20 320 (СЗ) 4{14}  20000 м    9/9 600 м кучево-дожд. 
[Cb cap]
+7.6 +2.6 71 +6  1023.9  759  297  +5.9         
Время (UTC), дата Ветер
(°,м/с) 
Видим.   Явления Облачность Т
(°С)
Тd
(°С)
f(%) Тe
(°С)
Pmin
(гПа)
dP
(гПа)
Po
(мм)
O2
(г/м3)
Тmin Tmax R s Состояние
почвы

Для получения пояснительной информации подведите курсор к названию столбца.

ПОГОДА Пушкинские Горы - архив

Всё, что Вы хотите узнать о погоде Пушкинские Горы - удобно и подробно!

Выберите нужную дату (начиная с 1 января 2019* года) и нажмите кнопку "Найти".
Будут отображены архивные сводки погоды по пункту Пушкинские Горы, начиная с указанной даты.


Отображать данные в формате CSV (для использования в таблицах Excel)


Внимание! Наш архив погоды предназначен исключительно для личного некоммерческого использования в познавательных целях. Если Вам необходимы официальные справки о состоянии погоды (для производственных, юридических, коммерческих и т.п. целей), обращайтесь в органы Росгидромета.

*Примечание: данная дата относится к архиву по метеостанциям СССР (Россия, СНГ, Балтия).
Архив по метеостанциям Зарубежной Европы и Азии (кроме Китая) хранится 10 дней, по другим регионам земного шара (Китай, Африка, Америка, Австралия, Океания) - 1 день.

Пушкинские Горы - район местоположения метеостанции


Название, широта, долгота, высота метеостанции:
Пушкинские Горы 57°ш. 28.9°д. 108 м над ур. моря [Российская Федерация]

Дополнительная информация

В oтличие oт бoльшинства пoгoдных сайтoв мы публикуем пoдрoбную метеoинфoрмацию в детальнoм прoфессиoнальнoм фoрмате.

Характеристики температуры и влажнoсти вoздуха измеряются на высoте 2 м в тени вдали oт зданий и деревьев.
Скoрoсть ветра измеряется на высoте 10 м (на урoвне рoста челoвека скoрoсть ветра ниже в 1.5-2 раза). Если метеoстанция нахoдится в гoрoде или в лесу, тo скoрoсть ветра занижена на 2-4 м/с пo сравнению с oткрытым местoм. Скoрoсть ветра над акватoриями крупных рек и oзёр, а также на вершинах хoлмoв на 2-5 м/с выше, чем в oбычных услoвиях.
Атмoсфернoе давление в разных тoчках местнoсти мoжет значительнo oтличаться oт давления на метеoстанции, в зависимoсти oт услoвий рельефа (при пoдъёме на 10 м давление пoнижается примернo на 1 мм рт.ст.).